Location: Chemnitz
(49.5500°N, 11.5830°E)
Time: 00:18:32
(UTC+01:00)

ISS - Pass Details

Date: 12 January 2018
Orbit: 401 x 406 km, 51.6° (Epoch: 17 January)

Event Time Altitude Azimuth Distance (km) Brightness Sun altitude
Exits shadow 06:24:54 33° 247° (WSW) 712 -3.0 -15.8°
Maximum altitude 06:25:42 39° 211° (SSW) 623 -3.1 -15.7°
Drops below altitude 10° 06:28:47 10° 140° (SE) 1,460 -0.2 -15.2°
Sets 06:30:56 0° 133° (SE) 2,318 1.2 -14.9°
